Evanston, WY

2:04 PM MDT on June 26, 2017 (GMT -0600)
Evanston-Uinta County Burns

Weather History for KEVW - February, 2014

Change the Weather History Date:

Thursday, February 6, 2014

  Actual Average Record
Temperature  
Mean Temperature 12 °F 22 °F  
Max Temperature 26 °F 30 °F 57 °F (2015)
Min Temperature -2 °F 14 °F -2 °F (2003)
Degree Days  
Heating Degree Days 53 43  
Month to date heating degree days 318 260  
Since 1 July heating degree days 4898 5089  
Cooling Degree Days 0 0  
Month to date cooling degree days 0 0  
Year to date cooling degree days 0 0  
Moisture  
Dew Point 5 °F    
Average Humidity 77    
Maximum Humidity 92    
Minimum Humidity 62    
Precipitation  
Precipitation T in 0.02 in 0.03 in (2005)
Month to date precipitation T 0.10  
Year to date precipitation 0.03 0.64  
Sea Level Pressure  
Sea Level Pressure 29.96 in    
Wind  
Wind Speed 9 mph (SSE)    
Max Wind Speed 22 mph    
Max Gust Speed 25 mph    
Visibility 7 miles    
Events Snow    
T = Trace of Precipitation, MM = Missing Value Source: NWS Daily Summary

Daily Weather History Graph

Daily Weather History Graph

Search for Another Location

Airport or City:

Trip Planner

Search our weather history database for the weather conditions in past years. The results will help you decide how hot, cold, wet, or windy it might be!

Date:

Astronomy

Feb. 06, 2014 Rise Set
Actual Time 7:29 AM MST 5:47 PM MST
Civil Twilight 7:01 AM MST 6:15 PM MST
Nautical Twilight 6:28 AM MST 6:48 PM MST
Astronomical Twilight 5:56 AM MST 7:20 PM MST
Moon 11:21 AM MST (2/6) 12:49 AM MST (2/6)
Length of Visible Light 11h 14m
Length of Day
10h 17m
Waxing Crescent, 50% of the Moon is Illuminated
Feb 6
Waxing Crescent
Feb 6
First Quarter
Feb 14
Full
Feb 22
Last Quarter
Mar 1
New

Hourly Weather History & Observations

Time (MST) Temp. Windchill Dew Point Humidity Pressure Visibility Wind Dir Wind Speed Gust Speed Precip Events Conditions
12:25 AM -0.9 °F -17.4 °F -6.0 °F 79% 29.89 in 6.0 mi East 10.4 mph - 0.00 in Snow Light Snow
12:33 AM -2.0 °F -19.6 °F -7.1 °F 79% 29.89 in 8.0 mi East 11.5 mph - 0.00 in Snow Light Snow
12:53 AM -0.9 °F -17.4 °F -6.0 °F 79% 30.18 in 5.0 mi East 10.4 mph - 0.00 in Snow Light Snow
1:53 AM -0.9 °F -15.3 °F -6.0 °F 79% 30.15 in 10.0 mi ESE 8.1 mph - 0.00 in   Mostly Cloudy
2:53 AM -0.9 °F -15.3 °F -6.0 °F 79% 30.12 in 10.0 mi East 8.1 mph - N/A   Overcast
3:53 AM 1.0 °F -14.0 °F -4.0 °F 79% 30.09 in 10.0 mi ESE 9.2 mph - N/A   Overcast
4:53 AM 1.9 °F -9.2 °F -4.0 °F 76% 30.09 in 10.0 mi SE 5.8 mph - N/A   Overcast
5:26 AM 3.9 °F -8.2 °F -2.0 °F 76% 29.82 in 3.0 mi SSE 6.9 mph - 0.00 in Snow Light Snow
5:35 AM 5.0 °F -6.9 °F -0.9 °F 76% 29.82 in 4.0 mi South 6.9 mph - 0.00 in Snow Light Snow
5:53 AM 6.1 °F -2.8 °F 1.0 °F 80% 30.08 in 10.0 mi South 4.6 mph - 0.00 in   Overcast
6:53 AM 6.1 °F -0.9 °F 1.0 °F 80% 30.10 in 10.0 mi South 3.5 mph - N/A   Overcast
7:53 AM 3.9 °F -5.3 °F -0.9 °F 80% 30.13 in 10.0 mi East 4.6 mph - N/A   Overcast
8:21 AM 3.9 °F -5.3 °F -0.9 °F 80% 29.84 in 2.5 mi East 4.6 mph - 0.00 in Snow Light Snow
8:31 AM 3.9 °F -5.3 °F -0.0 °F 84% 29.84 in 2.0 mi East 4.6 mph - 0.00 in Snow Light Snow
8:51 AM 3.2 °F -7.8 °F -0.4 °F 85% 29.84 in 3.0 mi East 5.8 mph - 0.00 in Snow Light Snow
8:53 AM 3.9 °F -6.9 °F -0.9 °F 80% 30.13 in 3.0 mi East 5.8 mph - 0.00 in Snow Light Snow
8:57 AM 5.0 °F -5.6 °F -0.0 °F 80% 29.84 in 1.8 mi East 5.8 mph - 0.00 in Snow Light Snow
9:06 AM 5.0 °F -5.6 °F -0.0 °F 80% 29.83 in 1.5 mi East 5.8 mph - 0.00 in Snow Light Snow
9:18 AM 5.0 °F -4.1 °F -0.0 °F 80% 29.84 in 2.0 mi East 4.6 mph - 0.00 in Snow Light Snow
9:26 AM 5.0 °F -4.1 °F -0.0 °F 80% 29.84 in 4.0 mi East 4.6 mph - 0.00 in Snow Light Snow
9:53 AM 7.0 °F 0.1 °F 1.0 °F 77% 30.12 in 7.0 mi SE 3.5 mph - 0.00 in   Overcast
10:53 AM 12.9 °F 3.8 °F 7.0 °F 77% 30.09 in 3.0 mi SSW 5.8 mph - 0.00 in Snow Light Snow
11:53 AM 17.1 °F 8.7 °F 10.9 °F 77% 30.05 in 10.0 mi WSW 5.8 mph - 0.00 in   Scattered Clouds
12:53 PM 19.9 °F 9.3 °F 10.9 °F 68% 30.01 in 10.0 mi WSW 9.2 mph - N/A   Overcast
1:53 PM 25.0 °F 12.2 °F 19.0 °F 78% 29.97 in 2.0 mi WSW 16.1 mph - 0.00 in Snow Light Snow
2:04 PM 26.1 °F 12.7 °F 18.0 °F 71% 29.78 in 9.0 mi WSW 18.4 mph - 0.00 in   Overcast
2:53 PM 25.0 °F 14.2 °F 16.0 °F 69% 29.96 in 10.0 mi West 11.5 mph - 0.00 in   Overcast
3:53 PM 26.1 °F 13.1 °F 15.1 °F 63% 29.93 in 10.0 mi WSW 17.3 mph - N/A   Overcast
4:53 PM 24.1 °F 12.0 °F 14.0 °F 65% 29.94 in 10.0 mi WSW 13.8 mph - N/A   Overcast
5:53 PM 19.9 °F 6.2 °F 12.0 °F 71% 29.94 in 10.0 mi West 15.0 mph - N/A   Clear
6:53 PM 19.9 °F 7.3 °F 14.0 °F 78% 29.93 in 10.0 mi WSW 12.7 mph - N/A   Overcast
7:53 PM 21.0 °F 8.1 °F 15.1 °F 78% 29.94 in 10.0 mi WSW 13.8 mph - N/A   Partly Cloudy
8:53 PM 17.1 °F 5.8 °F 14.0 °F 88% 29.96 in 10.0 mi SW 9.2 mph - N/A   Clear
9:53 PM 17.1 °F 6.6 °F 15.1 °F 92% 29.95 in 10.0 mi SW 8.1 mph - N/A   Overcast
10:53 PM 17.1 °F 5.0 °F 14.0 °F 88% 29.90 in 10.0 mi SW 10.4 mph - N/A   Overcast
11:53 PM 18.0 °F 5.4 °F 17.1 °F 96% 29.86 in 10.0 mi SW 11.5 mph - N/A   Overcast